Location: Ferma
(41.9500°N, 44.5167°E)
Time: 12:39:58
(UTC+00:00)

Cosmos 2173 Rocket - Pass Details

Date: 24 October 2021
Orbit: 945 x 1000 km, 83.0° (Epoch: 07 December)

Event Time Altitude Azimuth Distance (km) Brightness Sun altitude
Rises 16:44:39 0° 193° (SSW) 3,627 7.0 -29.9°
Reaches altitude 10° 16:47:08 10° 196° (SSW) 2,692 6.3 -30.4°
Maximum altitude 16:53:16 69° 279° (W) 1,039 4.2 -31.5°
Drops below altitude 10° 16:59:34 10° 3° (N) 2,749 6.4 -32.6°
Sets 17:02:08 0° 6° (N) 3,709 7.1 -33.1°
